Weather History for KNFW - August, 2013

Change the Weather History Date:

Saturday, August 31, 2013

  Actual Average Record
Temperature  
Mean Temperature 94 °F -  
Max Temperature 108 °F 90 °F - (-1)
Min Temperature 81 °F 72 °F - (-1)
Cooling Degree Days 29    
Growing Degree Days 44 (Base 50)    
Moisture  
Dew Point 58 °F    
Average Humidity 32    
Maximum Humidity 50    
Minimum Humidity 17    
Precipitation  
Precipitation 0.00 in - - ()
Sea Level Pressure  
Sea Level Pressure 29.85 in    
Wind  
Wind Speed 4 mph (SSE)    
Max Wind Speed 9 mph    
Max Gust Speed -    
Visibility 10 miles    
Events      
Averages and records for this station are not official NWS values.
T = Trace of Precipitation, MM = Missing Value Source: NWS Daily Summary

Daily Weather History Graph

Daily Weather History Graph

Search for Another Location

Airport or City:

Trip Planner

Search our weather history database for the weather conditions in past years. The results will help you decide how hot, cold, wet, or windy it might be!

Date:

Astronomy

Aug. 31, 2013 Rise Set
Actual Time 7:03 AM CDT 7:55 PM CDT
Civil Twilight 6:38 AM CDT 8:20 PM CDT
Nautical Twilight 6:09 AM CDT 8:50 PM CDT
Astronomical Twilight 5:38 AM CDT 9:20 PM CDT
Moon 2:43 AM CDT (8/31) 4:46 PM CDT (8/31)
Length of Visible Light 13h 41m
Length of Day
12h 51m
Waning Crescent, 21% of the Moon is Illuminated
Aug 31
Waning Crescent
Sep 5
New
Sep 12
First Quarter
Sep 19
Full
Sep 26
Last Quarter

Hourly Weather History & Observations

Time (CDT) Temp. Heat Index Dew Point Humidity Pressure Visibility Wind Dir Wind Speed Gust Speed Precip Events Conditions
12:52 AM 90.0 °F 88.6 °F 57.0 °F 33% 29.87 in 10.0 mi South 4.6 mph - N/A   Clear
1:52 AM 86.0 °F 85.0 °F 57.9 °F 38% 29.87 in 10.0 mi South 6.9 mph - N/A   Clear
2:52 AM 86.0 °F 85.0 °F 57.9 °F 38% 29.87 in 10.0 mi Calm Calm - N/A   Clear
3:52 AM 84.9 °F 84.2 °F 57.9 °F 40% 29.88 in 10.0 mi South 4.6 mph - N/A   Clear
4:52 AM 82.9 °F 82.8 °F 59.0 °F 44% 29.88 in 10.0 mi South 5.8 mph - N/A   Clear
5:52 AM 82.0 °F 82.4 °F 60.1 °F 47% 29.88 in 10.0 mi SSE 5.8 mph - N/A   Clear
6:52 AM 81.0 °F 81.7 °F 61.0 °F 50% 29.88 in 10.0 mi South 5.8 mph - N/A   Clear
7:52 AM 82.0 °F 82.7 °F 61.0 °F 49% 29.90 in 10.0 mi Calm Calm - N/A   Clear
8:09 AM 82.4 °F 82.9 °F 60.8 °F 48% 29.95 in 10.0 mi South 5.8 mph - N/A   Partly Cloudy
8:52 AM 86.0 °F 85.7 °F 60.1 °F 41% 29.91 in 10.0 mi South 6.9 mph - N/A   Partly Cloudy
9:52 AM 91.0 °F 90.5 °F 60.1 °F 35% 29.91 in 10.0 mi SSW 4.6 mph - N/A   Partly Cloudy
10:52 AM 96.1 °F 96.0 °F 60.1 °F 30% 29.90 in 10.0 mi Calm Calm - N/A   Partly Cloudy
11:52 AM 100.9 °F 100.5 °F 57.9 °F 24% 29.89 in 10.0 mi Calm Calm - N/A   Clear
12:52 PM 102.9 °F 102.4 °F 57.0 °F 22% 29.86 in 10.0 mi Calm Calm - N/A   Partly Cloudy
1:52 PM 105.1 °F 103.3 °F 54.0 °F 18% 29.85 in 10.0 mi South 5.8 mph - N/A   Partly Cloudy
2:52 PM 105.1 °F 103.3 °F 54.0 °F 18% 29.83 in 10.0 mi Calm Calm - N/A   Partly Cloudy
3:52 PM 107.1 °F 105.4 °F 54.0 °F 17% 29.81 in 10.0 mi SSE 5.8 mph - N/A   Scattered Clouds
4:52 PM 106.0 °F 104.5 °F 54.0 °F 18% 29.79 in 10.0 mi SSE 6.9 mph - N/A   Scattered Clouds
5:52 PM 104.0 °F 102.3 °F 54.0 °F 19% 29.79 in 10.0 mi ENE 6.9 mph - N/A   Partly Cloudy
6:52 PM 102.9 °F 101.4 °F 54.0 °F 20% 29.78 in 10.0 mi ESE 9.2 mph - N/A   Clear
7:52 PM 100.9 °F 99.6 °F 55.0 °F 22% 29.79 in 10.0 mi SE 9.2 mph - N/A   Clear
8:52 PM 98.1 °F 96.8 °F 57.0 °F 25% 29.80 in 10.0 mi SE 4.6 mph - N/A   Clear
9:52 PM 95.0 °F 94.0 °F 57.9 °F 29% 29.81 in 10.0 mi ESE 3.5 mph - N/A   Clear
10:52 PM 91.9 °F 90.8 °F 57.9 °F 32% 29.81 in 10.0 mi ESE 3.5 mph - N/A   Clear
11:52 PM 91.0 °F 90.0 °F 57.9 °F 33% 29.81 in 10.0 mi ESE 4.6 mph - N/A   Clear